KAL417 RKSI-PGUM

Flight info

Callsign KAL417
Flight time 4h 43m
Altitude 33000
Route OSPOT2Y OSPOT Y782 BITUX/N0464F350 Y782 TGU/N0469F370 Y781 BESNA Y209 IKE A582 HKC Y14 TGE G339 BIXAK DCT 25N137E 20N141E DCT RICHH A597 UNZ
Aircraft B738/M-SDE2E3FGHIRWXY/LB1

Departure

Time 2026-04-24 10:40
Airport Incheon International Airport (RKSI)

Arrival

Time 2026-04-24 15:23
Airport Antonio B. Won Pat International Airport (PGUM)
Time Latitude Longitude Altitude Speed Heading
2026-04-24 10:19 37.46735 126.42896 32 ft 0 kts 51°
2026-04-24 10:27 37.46733 126.42892 32 ft 3 kts 52°
2026-04-24 10:27 37.46717 126.42866 30 ft 4 kts 57°
2026-04-24 10:27 37.46704 126.42836 31 ft 4 kts 65°
2026-04-24 10:27 37.46695 126.42805 31 ft 4 kts 84°
2026-04-24 10:28 37.46698 126.42777 30 ft 3 kts 139°
2026-04-24 10:28 37.46704 126.42771 31 ft 0 kts 143°
2026-04-24 10:31 37.46698 126.42776 30 ft 2 kts 143°
2026-04-24 10:31 37.46684 126.42790 31 ft 3 kts 142°
2026-04-24 10:31 37.46664 126.42809 32 ft 4 kts 142°
2026-04-24 10:31 37.46643 126.42829 31 ft 4 kts 144°
2026-04-24 10:32 37.46611 126.42857 31 ft 7 kts 144°
2026-04-24 10:32 37.46565 126.42899 32 ft 9 kts 144°
2026-04-24 10:32 37.46506 126.42954 32 ft 11 kts 143°
2026-04-24 10:32 37.46444 126.42955 30 ft 10 kts 225°
2026-04-24 10:33 37.46405 126.42889 32 ft 9 kts 234°
2026-04-24 10:33 37.46366 126.42829 32 ft 8 kts 216°
2026-04-24 10:33 37.46318 126.42835 32 ft 7 kts 146°
2026-04-24 10:33 37.46274 126.42874 32 ft 8 kts 147°
2026-04-24 10:34 37.46220 126.42921 32 ft 11 kts 145°
2026-04-24 10:34 37.46148 126.42984 31 ft 14 kts 145°
2026-04-24 10:34 37.46057 126.43065 32 ft 17 kts 143°
2026-04-24 10:34 37.45963 126.43151 32 ft 16 kts 145°
2026-04-24 10:35 37.45871 126.43232 32 ft 16 kts 145°
2026-04-24 10:35 37.45774 126.43317 31 ft 18 kts 144°
2026-04-24 10:35 37.45667 126.43416 32 ft 20 kts 144°
2026-04-24 10:35 37.45548 126.43520 30 ft 21 kts 144°
2026-04-24 10:36 37.45422 126.43632 30 ft 23 kts 144°
2026-04-24 10:36 37.45292 126.43746 32 ft 22 kts 145°
2026-04-24 10:36 37.45167 126.43858 32 ft 22 kts 144°
2026-04-24 10:36 37.45046 126.43967 32 ft 21 kts 144°
2026-04-24 10:37 37.44928 126.44073 31 ft 20 kts 144°
2026-04-24 10:37 37.44814 126.44175 30 ft 20 kts 144°
2026-04-24 10:37 37.44703 126.44273 32 ft 19 kts 145°
2026-04-24 10:37 37.44599 126.44364 30 ft 17 kts 144°
2026-04-24 10:38 37.44526 126.44425 31 ft 8 kts 165°
2026-04-24 10:38 37.44478 126.44394 31 ft 8 kts 231°
2026-04-24 10:38 37.44446 126.44337 32 ft 8 kts 234°
2026-04-24 10:38 37.44415 126.44282 32 ft 8 kts 235°
2026-04-24 10:39 37.44383 126.44226 32 ft 9 kts 235°
2026-04-24 10:39 37.44381 126.44147 32 ft 11 kts 304°
2026-04-24 10:39 37.44455 126.44074 32 ft 20 kts 324°
2026-04-24 10:39 37.44718 126.43839 32 ft 78 kts 324°
2026-04-24 10:40 37.45329 126.43295 31 ft 135 kts 325°
2026-04-24 10:40 37.46216 126.42496 89 ft 175 kts 322°
2026-04-24 10:40 37.47217 126.41559 673 ft 178 kts 321°
2026-04-24 10:40 37.48130 126.40529 1385 ft 179 kts 307°
2026-04-24 10:41 37.48880 126.39255 1908 ft 184 kts 302°
2026-04-24 10:41 37.49675 126.37952 2495 ft 184 kts 306°
2026-04-24 10:41 37.50345 126.36596 2990 ft 183 kts 277°
2026-04-24 10:41 37.50408 126.34983 3329 ft 194 kts 268°
2026-04-24 10:42 37.50448 126.33194 3517 ft 214 kts 269°
2026-04-24 10:42 37.50497 126.31244 3642 ft 231 kts 269°
2026-04-24 10:42 37.50550 126.29143 3800 ft 250 kts 269°
2026-04-24 10:42 37.50605 126.26904 4098 ft 265 kts 269°
2026-04-24 10:43 37.50662 126.24531 4675 ft 269 kts 270°
2026-04-24 10:43 37.50717 126.22170 5324 ft 270 kts 270°
2026-04-24 10:43 37.50532 126.19862 5921 ft 271 kts 248°
2026-04-24 10:43 37.49468 126.17934 6511 ft 273 kts 219°
2026-04-24 10:44 37.47817 126.16744 7072 ft 277 kts 201°
2026-04-24 10:44 37.45995 126.15907 7654 ft 281 kts 200°
2026-04-24 10:44 37.44138 126.15074 8232 ft 285 kts 200°
2026-04-24 10:44 37.42204 126.14492 8840 ft 289 kts 179°
2026-04-24 10:45 37.40253 126.15056 9482 ft 292 kts 151°
2026-04-24 10:45 37.38655 126.16630 10097 ft 294 kts 130°
2026-04-24 10:45 37.37267 126.18644 10405 ft 311 kts 128°
2026-04-24 10:45 37.35829 126.20780 10564 ft 331 kts 129°
2026-04-24 10:46 37.34307 126.23006 10779 ft 347 kts 129°
2026-04-24 10:46 37.32708 126.25314 11271 ft 353 kts 129°
2026-04-24 10:46 37.31062 126.27671 11947 ft 355 kts 129°
2026-04-24 10:46 37.29452 126.29973 12605 ft 357 kts 129°
2026-04-24 10:47 37.27803 126.32328 13252 ft 361 kts 129°
2026-04-24 10:47 37.26139 126.34700 13916 ft 364 kts 128°
2026-04-24 10:47 37.24458 126.37094 14504 ft 367 kts 129°
2026-04-24 10:47 37.22760 126.39513 15080 ft 371 kts 129°
2026-04-24 10:48 37.21015 126.41988 15682 ft 376 kts 130°
2026-04-24 10:48 37.19330 126.44454 16263 ft 378 kts 124°
2026-04-24 10:48 37.18043 126.47330 16829 ft 380 kts 113°
2026-04-24 10:48 37.16924 126.50399 17421 ft 384 kts 112°
2026-04-24 10:49 37.15813 126.53459 18002 ft 388 kts 113°
2026-04-24 10:49 37.14658 126.56539 18525 ft 392 kts 114°
2026-04-24 10:49 37.13483 126.59589 19030 ft 395 kts 114°
2026-04-24 10:49 37.12274 126.62693 19574 ft 397 kts 114°
2026-04-24 10:50 37.11041 126.65845 20088 ft 400 kts 114°
2026-04-24 10:50 37.09815 126.68984 20592 ft 403 kts 114°
2026-04-24 10:50 37.08579 126.72147 21090 ft 405 kts 114°
2026-04-24 10:50 37.07336 126.75324 21587 ft 408 kts 114°
2026-04-24 10:51 37.06084 126.78521 22111 ft 410 kts 114°
2026-04-24 10:51 37.04825 126.81734 22594 ft 412 kts 114°
2026-04-24 10:51 37.03556 126.84968 23052 ft 415 kts 114°
2026-04-24 10:51 37.02280 126.88218 23486 ft 418 kts 114°
2026-04-24 10:52 37.00993 126.91491 23878 ft 421 kts 114°
2026-04-24 10:52 36.99695 126.94791 24249 ft 423 kts 114°
2026-04-24 10:52 36.98390 126.98103 24609 ft 426 kts 114°
2026-04-24 10:52 36.97522 127.00305 24851 ft 428 kts 115°
2026-04-24 10:53 36.96198 127.03659 25186 ft 431 kts 115°
2026-04-24 10:53 36.94868 127.07024 25532 ft 434 kts 115°
2026-04-24 10:53 36.93527 127.10415 25887 ft 436 kts 115°
2026-04-24 10:53 36.92182 127.13814 26232 ft 438 kts 115°
2026-04-24 10:54 36.90825 127.17237 26564 ft 441 kts 114°
2026-04-24 10:54 36.89462 127.20673 26888 ft 443 kts 114°
2026-04-24 10:54 36.88086 127.24137 27223 ft 446 kts 115°
2026-04-24 10:54 36.86704 127.27614 27517 ft 448 kts 115°
2026-04-24 10:55 36.85313 127.31108 27833 ft 451 kts 115°
2026-04-24 10:55 36.83868 127.34593 28147 ft 454 kts 121°
2026-04-24 10:55 36.81846 127.37639 28393 ft 459 kts 135°
2026-04-24 10:55 36.79517 127.40370 28746 ft 460 kts 136°
2026-04-24 10:56 36.77172 127.43098 29026 ft 463 kts 135°
2026-04-24 10:56 36.74839 127.45882 29262 ft 465 kts 135°
2026-04-24 10:56 36.72523 127.48704 29610 ft 466 kts 135°
2026-04-24 10:56 36.70215 127.51539 30008 ft 465 kts 135°
2026-04-24 10:57 36.67914 127.54363 30370 ft 464 kts 135°
2026-04-24 10:57 36.65613 127.57179 30649 ft 464 kts 136°
2026-04-24 10:57 36.63303 127.60000 30920 ft 465 kts 136°
2026-04-24 10:57 36.60993 127.62813 31221 ft 465 kts 136°
2026-04-24 10:58 36.58680 127.65625 31518 ft 465 kts 137°
2026-04-24 10:58 36.56368 127.68439 31806 ft 465 kts 137°
2026-04-24 10:58 36.54060 127.71248 32069 ft 465 kts 137°
2026-04-24 10:58 36.51748 127.74061 32329 ft 465 kts 138°
2026-04-24 10:59 36.49431 127.76880 32584 ft 466 kts 138°
2026-04-24 10:59 36.47117 127.79691 32874 ft 466 kts 139°
2026-04-24 10:59 36.44796 127.82505 33090 ft 467 kts 139°
2026-04-24 11:00 36.40090 127.88215 33064 ft 471 kts 139°
2026-04-24 11:00 36.35436 127.93868 33056 ft 465 kts 139°
2026-04-24 11:01 36.30799 127.99485 33085 ft 467 kts 140°
2026-04-24 11:01 36.26133 128.05127 33090 ft 470 kts 140°
2026-04-24 11:02 36.21432 128.10782 33085 ft 472 kts 140°
2026-04-24 11:02 36.16706 128.16460 33088 ft 474 kts 140°
2026-04-24 11:03 36.11978 128.22135 33086 ft 474 kts 141°
2026-04-24 11:03 36.07254 128.27800 33099 ft 473 kts 141°
2026-04-24 11:04 36.02537 128.33444 33097 ft 471 kts 141°
2026-04-24 11:04 35.97835 128.39067 33090 ft 470 kts 142°
2026-04-24 11:05 35.93140 128.44662 33101 ft 469 kts 142°
2026-04-24 11:05 35.88453 128.50243 33104 ft 468 kts 142°
2026-04-24 11:06 35.83738 128.55758 33106 ft 464 kts 148°
2026-04-24 11:06 35.81018 128.57731 33119 ft 447 kts 166°
2026-04-24 11:06 35.78051 128.58680 33110 ft 436 kts 180°
2026-04-24 11:07 35.69150 128.58097 33102 ft 427 kts 192°
2026-04-24 11:07 35.63218 128.57477 33120 ft 428 kts 191°
2026-04-24 11:08 35.57263 128.56932 33117 ft 430 kts 191°
2026-04-24 11:08 35.51275 128.56491 33102 ft 435 kts 185°
2026-04-24 11:09 35.45212 128.57814 33107 ft 452 kts 169°
2026-04-24 11:09 35.39405 128.61025 33118 ft 460 kts 161°
2026-04-24 11:10 35.33713 128.64517 33103 ft 460 kts 161°
2026-04-24 11:10 35.27972 128.67975 33073 ft 459 kts 161°
2026-04-24 11:11 35.22190 128.71388 33106 ft 459 kts 162°
2026-04-24 11:11 35.16438 128.74775 33100 ft 459 kts 162°
2026-04-24 11:12 35.10683 128.78162 33118 ft 459 kts 162°
2026-04-24 11:12 35.04932 128.81538 33126 ft 458 kts 161°
2026-04-24 11:13 34.99241 128.84954 33108 ft 460 kts 159°
2026-04-24 11:13 34.93745 128.89056 33125 ft 465 kts 154°
2026-04-24 11:14 34.88317 128.93352 33114 ft 464 kts 155°
2026-04-24 11:14 34.82859 128.97549 33118 ft 464 kts 156°
2026-04-24 11:15 34.77377 129.01685 33117 ft 464 kts 156°
2026-04-24 11:15 34.71893 129.05810 33109 ft 463 kts 156°
2026-04-24 11:16 34.66408 129.09935 33115 ft 464 kts 156°
2026-04-24 11:16 34.60921 129.14048 33099 ft 464 kts 157°
2026-04-24 11:17 34.55422 129.18152 33106 ft 464 kts 157°
2026-04-24 11:17 34.49914 129.22255 33104 ft 465 kts 157°
2026-04-24 11:18 34.44404 129.26359 33080 ft 465 kts 158°
2026-04-24 11:18 34.38892 129.30455 33080 ft 465 kts 158°
2026-04-24 11:19 34.33362 129.34558 33074 ft 466 kts 158°
2026-04-24 11:19 34.27832 129.38648 33087 ft 466 kts 159°
2026-04-24 11:20 34.22306 129.42745 33092 ft 466 kts 159°
2026-04-24 11:20 34.16779 129.46836 33069 ft 465 kts 160°
2026-04-24 11:21 34.11253 129.50910 33077 ft 466 kts 160°
2026-04-24 11:21 34.05725 129.54981 33085 ft 466 kts 160°
2026-04-24 11:22 34.00189 129.59081 33060 ft 467 kts 160°
2026-04-24 11:22 33.94656 129.63179 33063 ft 466 kts 161°
2026-04-24 11:23 33.89101 129.67208 33056 ft 466 kts 161°
2026-04-24 11:23 33.83538 129.71238 33055 ft 467 kts 161°
2026-04-24 11:24 33.77988 129.75332 33051 ft 468 kts 160°
2026-04-24 11:24 33.72309 129.78861 33046 ft 447 kts 173°
2026-04-24 11:25 33.66385 129.81170 33011 ft 444 kts 175°
2026-04-24 11:25 33.60519 129.83430 33037 ft 443 kts 175°
2026-04-24 11:26 33.54664 129.85749 33039 ft 443 kts 175°
2026-04-24 11:26 33.48815 129.88085 33042 ft 443 kts 175°
2026-04-24 11:27 33.43008 129.90401 33024 ft 442 kts 175°
2026-04-24 11:27 33.37151 129.92741 33024 ft 439 kts 176°
2026-04-24 11:28 33.31352 129.95046 33017 ft 438 kts 177°
2026-04-24 11:28 33.25589 129.97329 33026 ft 436 kts 177°
2026-04-24 11:29 33.19843 129.99609 33013 ft 435 kts 177°
2026-04-24 11:29 33.14111 130.01865 33015 ft 432 kts 177°
2026-04-24 11:30 33.08399 130.04133 32998 ft 432 kts 176°
2026-04-24 11:30 33.02723 130.06222 33009 ft 428 kts 176°
2026-04-24 11:31 32.98038 130.08021 32999 ft 434 kts 174°
2026-04-24 11:31 32.91428 130.10836 32944 ft 429 kts 177°
2026-04-24 11:32 32.86709 130.12650 33013 ft 429 kts 177°
2026-04-24 11:32 32.81018 130.14850 33011 ft 431 kts 176°
2026-04-24 11:33 32.75304 130.17078 33011 ft 433 kts 176°
2026-04-24 11:33 32.69566 130.19320 33007 ft 435 kts 176°
2026-04-24 11:34 32.63815 130.21566 33001 ft 435 kts 176°
2026-04-24 11:34 32.58064 130.23805 33007 ft 436 kts 176°
2026-04-24 11:35 32.52298 130.26076 32976 ft 437 kts 175°
2026-04-24 11:35 32.46538 130.28359 32991 ft 436 kts 175°
2026-04-24 11:36 32.40776 130.30640 33002 ft 436 kts 176°
2026-04-24 11:36 32.35027 130.32906 32994 ft 434 kts 176°
2026-04-24 11:37 32.29306 130.35161 32986 ft 432 kts 176°
2026-04-24 11:37 32.23617 130.37399 32998 ft 429 kts 176°
2026-04-24 11:38 32.17962 130.39621 32972 ft 427 kts 176°
2026-04-24 11:38 32.12339 130.41828 32996 ft 425 kts 176°
2026-04-24 11:39 32.06724 130.44013 33000 ft 425 kts 177°
2026-04-24 11:39 32.01111 130.46181 33002 ft 426 kts 176°
2026-04-24 11:40 31.95478 130.48352 32987 ft 426 kts 177°
2026-04-24 11:40 31.89842 130.50531 32985 ft 427 kts 177°
2026-04-24 11:41 31.84196 130.52706 33005 ft 428 kts 176°
2026-04-24 11:41 31.78563 130.54881 32993 ft 429 kts 177°
2026-04-24 11:42 31.72832 130.57088 32999 ft 431 kts 176°
2026-04-24 11:42 31.67122 130.59281 32998 ft 432 kts 177°
2026-04-24 11:43 31.61386 130.61438 33011 ft 433 kts 177°
2026-04-24 11:43 31.55637 130.63616 33009 ft 435 kts 177°
2026-04-24 11:44 31.49869 130.65787 32998 ft 435 kts 177°
2026-04-24 11:44 31.44147 130.67932 33001 ft 434 kts 177°
2026-04-24 11:45 31.38400 130.70088 33001 ft 433 kts 177°
2026-04-24 11:45 31.32669 130.72234 33002 ft 432 kts 177°
2026-04-24 11:46 31.26912 130.74393 33001 ft 431 kts 177°
2026-04-24 11:46 31.21211 130.76533 32973 ft 430 kts 177°
2026-04-24 11:47 31.15529 130.78676 32976 ft 428 kts 178°
2026-04-24 11:47 31.09874 130.80775 32983 ft 426 kts 178°
2026-04-24 11:48 31.04272 130.82838 33003 ft 425 kts 178°
2026-04-24 11:48 30.98619 130.84916 33007 ft 427 kts 178°
2026-04-24 11:49 30.92953 130.86999 32990 ft 427 kts 178°
2026-04-24 11:49 30.87276 130.89106 32993 ft 429 kts 177°
2026-04-24 11:50 30.81591 130.91239 32962 ft 430 kts 177°
2026-04-24 11:50 30.75887 130.93367 32967 ft 430 kts 177°
2026-04-24 11:51 30.70180 130.95489 32944 ft 431 kts 177°
2026-04-24 11:51 30.64466 130.97613 32965 ft 432 kts 177°
2026-04-24 11:52 30.58781 131.00159 32961 ft 455 kts 165°
2026-04-24 11:52 30.53373 131.04234 32966 ft 466 kts 160°
2026-04-24 11:53 30.47996 131.08388 32970 ft 463 kts 162°
2026-04-24 11:53 30.42599 131.12445 32948 ft 462 kts 161°
2026-04-24 11:54 30.37230 131.16510 32971 ft 460 kts 161°
2026-04-24 11:54 30.31880 131.20558 32971 ft 459 kts 161°
2026-04-24 11:55 30.26548 131.24586 32978 ft 457 kts 161°
2026-04-24 11:55 30.21224 131.28601 32980 ft 456 kts 161°
2026-04-24 11:56 30.15903 131.32579 32981 ft 455 kts 161°
2026-04-24 11:56 30.10586 131.36526 32957 ft 454 kts 161°
2026-04-24 11:57 30.05277 131.40472 32966 ft 454 kts 161°
2026-04-24 11:57 29.99954 131.44425 32969 ft 456 kts 161°
2026-04-24 11:58 29.94618 131.48389 32971 ft 457 kts 161°
2026-04-24 11:58 29.89259 131.52374 32968 ft 459 kts 160°
2026-04-24 11:59 29.83880 131.56371 32906 ft 460 kts 160°
2026-04-24 11:59 29.78497 131.60368 32969 ft 461 kts 160°
2026-04-24 12:00 29.73097 131.64369 32972 ft 462 kts 160°
2026-04-24 12:00 29.67680 131.68379 32969 ft 463 kts 160°
2026-04-24 12:01 29.62251 131.72395 32966 ft 465 kts 160°
2026-04-24 12:01 29.56838 131.76489 32957 ft 469 kts 157°
2026-04-24 12:02 29.51545 131.80917 32950 ft 471 kts 155°
2026-04-24 12:02 29.46266 131.85370 32959 ft 470 kts 156°
2026-04-24 12:03 29.40969 131.89774 32964 ft 470 kts 156°
2026-04-24 12:03 29.35671 131.94154 32962 ft 470 kts 156°
2026-04-24 12:04 29.30369 131.98520 32961 ft 469 kts 156°
2026-04-24 12:04 29.25072 132.02882 32955 ft 469 kts 156°
2026-04-24 12:05 29.19774 132.07233 32945 ft 468 kts 156°
2026-04-24 12:05 29.14477 132.11583 32953 ft 469 kts 156°
2026-04-24 12:06 29.09172 132.15936 32961 ft 470 kts 156°
2026-04-24 12:06 29.03853 132.20294 32941 ft 471 kts 155°
2026-04-24 12:07 28.98526 132.24654 32959 ft 471 kts 155°
2026-04-24 12:07 28.93191 132.29015 32955 ft 472 kts 155°
2026-04-24 12:08 28.87845 132.33379 32952 ft 472 kts 155°
2026-04-24 12:08 28.82499 132.37738 32955 ft 472 kts 155°
2026-04-24 12:09 28.77154 132.42091 32943 ft 472 kts 155°
2026-04-24 12:09 28.71806 132.46440 32958 ft 472 kts 155°
2026-04-24 12:10 28.66453 132.50785 32961 ft 472 kts 155°
2026-04-24 12:11 28.58421 132.57298 32959 ft 473 kts 155°
2026-04-24 12:11 28.53066 132.61634 32947 ft 472 kts 155°
2026-04-24 12:12 28.47712 132.65964 32959 ft 472 kts 155°
2026-04-24 12:12 28.42355 132.70291 32962 ft 473 kts 155°
2026-04-24 12:13 28.37902 132.73885 32958 ft 473 kts 155°
2026-04-24 12:13 28.31627 132.78934 32953 ft 473 kts 155°
2026-04-24 12:14 28.27169 132.82516 32937 ft 473 kts 155°
2026-04-24 12:14 28.21801 132.86829 32955 ft 473 kts 155°
2026-04-24 12:15 28.16434 132.91136 32966 ft 473 kts 155°
2026-04-24 12:15 28.11064 132.95442 32963 ft 473 kts 155°
2026-04-24 12:16 28.05687 132.99747 32962 ft 474 kts 155°
2026-04-24 12:16 28.00306 133.04051 32951 ft 474 kts 154°
2026-04-24 12:17 27.94927 133.08350 32938 ft 473 kts 154°
2026-04-24 12:17 27.89557 133.12657 32960 ft 475 kts 152°
2026-04-24 12:17 27.87047 133.15139 32961 ft 486 kts 142°
2026-04-24 12:18 27.84826 133.18068 32973 ft 492 kts 137°
2026-04-24 12:18 27.80564 133.24136 32942 ft 493 kts 136°
2026-04-24 12:19 27.76318 133.30205 32955 ft 491 kts 137°
2026-04-24 12:19 27.72049 133.36211 32968 ft 490 kts 137°
2026-04-24 12:20 27.67764 133.42182 32958 ft 489 kts 137°
2026-04-24 12:20 27.63480 133.48133 32967 ft 488 kts 137°
2026-04-24 12:21 27.59204 133.54066 32963 ft 487 kts 137°
2026-04-24 12:21 27.54934 133.59986 32967 ft 486 kts 137°
2026-04-24 12:22 27.50669 133.65893 32952 ft 485 kts 137°
2026-04-24 12:22 27.46406 133.71790 32961 ft 485 kts 137°
2026-04-24 12:23 27.42147 133.77672 32971 ft 485 kts 137°
2026-04-24 12:23 27.37881 133.83556 32953 ft 485 kts 137°
2026-04-24 12:24 27.33618 133.89428 32975 ft 485 kts 137°
2026-04-24 12:24 27.29349 133.95299 32970 ft 485 kts 137°
2026-04-24 12:25 27.25074 134.01173 32971 ft 485 kts 137°
2026-04-24 12:25 27.20799 134.07038 32966 ft 485 kts 137°
2026-04-24 12:26 27.16516 134.12907 32971 ft 485 kts 137°
2026-04-24 12:26 27.12233 134.18766 32972 ft 486 kts 137°
2026-04-24 12:27 27.07944 134.24627 32964 ft 486 kts 137°
2026-04-24 12:27 27.03658 134.30477 32959 ft 485 kts 137°
2026-04-24 12:28 26.99374 134.36316 32969 ft 485 kts 137°
2026-04-24 12:28 26.95088 134.42149 32966 ft 484 kts 137°
2026-04-24 12:29 26.90802 134.47974 32975 ft 484 kts 137°
2026-04-24 12:29 26.86525 134.53781 32974 ft 483 kts 137°
2026-04-24 12:30 26.82244 134.59583 32975 ft 483 kts 137°
2026-04-24 12:30 26.77966 134.65376 32975 ft 482 kts 137°
2026-04-24 12:31 26.73691 134.71157 32984 ft 482 kts 137°
2026-04-24 12:31 26.69414 134.76932 32980 ft 482 kts 137°
2026-04-24 12:32 26.65135 134.82703 32979 ft 482 kts 137°
2026-04-24 12:32 26.60858 134.88462 32982 ft 481 kts 137°
2026-04-24 12:33 26.56579 134.94219 32969 ft 481 kts 137°
2026-04-24 12:33 26.52304 134.99963 32979 ft 481 kts 137°
2026-04-24 12:34 26.48026 135.05702 32985 ft 481 kts 137°
2026-04-24 12:34 26.43744 135.11438 32987 ft 481 kts 137°
2026-04-24 12:35 26.39461 135.17171 32965 ft 481 kts 137°
2026-04-24 12:35 26.35184 135.22889 32995 ft 480 kts 137°
2026-04-24 12:36 26.30902 135.28604 32990 ft 480 kts 137°
2026-04-24 12:36 26.26621 135.34311 32999 ft 480 kts 137°
2026-04-24 12:37 26.22344 135.40006 32994 ft 479 kts 137°
2026-04-24 12:37 26.18066 135.45696 32999 ft 479 kts 137°
2026-04-24 12:38 26.13793 135.51370 33003 ft 478 kts 137°
2026-04-24 12:38 26.09517 135.57043 32985 ft 478 kts 137°
2026-04-24 12:39 26.00976 135.68351 33004 ft 477 kts 137°
2026-04-24 12:40 25.96706 135.73995 33005 ft 477 kts 137°
2026-04-24 12:40 25.92441 135.79625 33003 ft 476 kts 137°
2026-04-24 12:41 25.88177 135.85246 33007 ft 475 kts 137°
2026-04-24 12:41 25.83915 135.90857 33011 ft 475 kts 137°
2026-04-24 12:42 25.79656 135.96459 33010 ft 475 kts 137°
2026-04-24 12:42 25.75424 136.02017 33012 ft 474 kts 137°
2026-04-24 12:43 25.71138 136.07640 33013 ft 474 kts 137°
2026-04-24 12:43 25.66876 136.13224 32997 ft 474 kts 136°
2026-04-24 12:44 25.62646 136.18760 33016 ft 474 kts 137°
2026-04-24 12:44 25.58385 136.24330 33019 ft 474 kts 137°
2026-04-24 12:45 25.54124 136.29892 33020 ft 473 kts 137°
2026-04-24 12:45 25.49863 136.35449 33009 ft 473 kts 136°
2026-04-24 12:46 25.45607 136.40993 33015 ft 472 kts 136°
2026-04-24 12:46 25.41354 136.46525 33017 ft 472 kts 136°
2026-04-24 12:47 25.37102 136.52051 33024 ft 472 kts 136°
2026-04-24 12:47 25.32849 136.57570 33021 ft 471 kts 136°
2026-04-24 12:48 25.28603 136.63074 33026 ft 470 kts 136°
2026-04-24 12:48 25.24361 136.68567 33029 ft 470 kts 136°
2026-04-24 12:49 25.20120 136.74052 33023 ft 469 kts 136°
2026-04-24 12:49 25.15880 136.79530 33029 ft 469 kts 136°
2026-04-24 12:50 25.11640 136.85002 33036 ft 469 kts 136°
2026-04-24 12:50 25.07402 136.90466 33037 ft 469 kts 136°
2026-04-24 12:51 25.03164 136.95926 33031 ft 468 kts 136°
2026-04-24 12:51 24.98757 137.01173 33025 ft 461 kts 146°
2026-04-24 12:52 24.93685 137.05439 33036 ft 458 kts 149°
2026-04-24 12:52 24.88562 137.09629 33029 ft 459 kts 148°
2026-04-24 12:53 24.83455 137.13848 33035 ft 459 kts 148°
2026-04-24 12:53 24.78358 137.18095 33041 ft 459 kts 148°
2026-04-24 12:54 24.73269 137.22345 33048 ft 460 kts 148°
2026-04-24 12:54 24.68172 137.26600 33037 ft 460 kts 148°
2026-04-24 12:55 24.63933 137.30133 33048 ft 460 kts 148°
2026-04-24 12:55 24.57976 137.35091 33048 ft 460 kts 148°
2026-04-24 12:56 24.53731 137.38621 33048 ft 460 kts 148°
2026-04-24 12:56 24.48630 137.42860 33048 ft 460 kts 147°
2026-04-24 12:57 24.43526 137.47095 33051 ft 460 kts 147°
2026-04-24 12:57 24.38420 137.51328 33055 ft 460 kts 148°
2026-04-24 12:58 24.33314 137.55556 33056 ft 460 kts 147°
2026-04-24 12:58 24.28211 137.59777 33055 ft 459 kts 147°
2026-04-24 12:59 24.23110 137.63993 33059 ft 459 kts 147°
2026-04-24 12:59 24.18011 137.68202 33060 ft 459 kts 147°
2026-04-24 13:00 24.12917 137.72404 33059 ft 458 kts 147°
2026-04-24 13:00 24.07825 137.76599 33066 ft 458 kts 147°
2026-04-24 13:01 24.02733 137.80790 33068 ft 458 kts 147°
2026-04-24 13:01 23.97644 137.84974 33050 ft 458 kts 147°
2026-04-24 13:02 23.92554 137.89155 33063 ft 457 kts 147°
2026-04-24 13:02 23.87471 137.93325 33062 ft 457 kts 147°
2026-04-24 13:03 23.82385 137.97495 33063 ft 457 kts 147°
2026-04-24 13:03 23.77304 138.01656 33057 ft 456 kts 147°
2026-04-24 13:04 23.72226 138.05810 33062 ft 456 kts 147°
2026-04-24 13:04 23.67147 138.09961 33065 ft 456 kts 147°
2026-04-24 13:05 23.62104 138.14078 33070 ft 456 kts 147°
2026-04-24 13:05 23.57030 138.18217 33068 ft 456 kts 147°
2026-04-24 13:06 23.51953 138.22353 33071 ft 455 kts 147°
2026-04-24 13:06 23.46879 138.26484 33071 ft 455 kts 147°
2026-04-24 13:07 23.41804 138.30611 33068 ft 456 kts 147°
2026-04-24 13:07 23.36724 138.34738 33072 ft 455 kts 147°
2026-04-24 13:08 23.31643 138.38862 33074 ft 456 kts 147°
2026-04-24 13:08 23.26562 138.42983 33074 ft 456 kts 147°
2026-04-24 13:09 23.18937 138.49158 33074 ft 455 kts 146°
2026-04-24 13:09 23.13854 138.53270 33072 ft 455 kts 146°
2026-04-24 13:10 23.08770 138.57378 33076 ft 455 kts 146°
2026-04-24 13:10 23.03688 138.61481 33076 ft 455 kts 146°
2026-04-24 13:11 22.98609 138.65578 33074 ft 455 kts 146°
2026-04-24 13:11 22.93531 138.69669 33076 ft 454 kts 146°
2026-04-24 13:12 22.88458 138.73753 33076 ft 454 kts 146°
2026-04-24 13:12 22.83383 138.77834 33075 ft 454 kts 146°
2026-04-24 13:13 22.78306 138.81914 33084 ft 454 kts 146°
2026-04-24 13:13 22.73233 138.85986 33077 ft 454 kts 146°
2026-04-24 13:14 22.68164 138.90051 33078 ft 454 kts 146°
2026-04-24 13:14 22.63083 138.94121 33074 ft 454 kts 146°
2026-04-24 13:15 22.58004 138.98187 33083 ft 454 kts 146°
2026-04-24 13:15 22.52920 139.02253 33081 ft 455 kts 146°
2026-04-24 13:16 22.47828 139.06321 33080 ft 455 kts 146°
2026-04-24 13:16 22.42733 139.10388 33073 ft 455 kts 145°
2026-04-24 13:17 22.37636 139.14453 33081 ft 456 kts 145°
2026-04-24 13:17 22.32533 139.18518 33079 ft 456 kts 145°
2026-04-24 13:18 22.27426 139.22584 33082 ft 456 kts 145°
2026-04-24 13:18 22.22319 139.26645 33081 ft 456 kts 145°
2026-04-24 13:19 22.17214 139.30700 33078 ft 456 kts 145°
2026-04-24 13:19 22.12139 139.34729 33079 ft 456 kts 146°
2026-04-24 13:20 22.07000 139.38804 33081 ft 455 kts 146°
2026-04-24 13:20 22.01898 139.42846 33084 ft 455 kts 145°
2026-04-24 13:21 21.96802 139.46881 33077 ft 454 kts 145°
2026-04-24 13:21 21.91715 139.50904 33078 ft 453 kts 145°
2026-04-24 13:22 21.86631 139.54921 33077 ft 453 kts 145°
2026-04-24 13:22 21.81558 139.58926 33081 ft 452 kts 145°
2026-04-24 13:23 21.76489 139.62924 33078 ft 451 kts 145°
2026-04-24 13:23 21.71424 139.66916 33083 ft 451 kts 145°
2026-04-24 13:24 21.66395 139.70874 33079 ft 451 kts 145°
2026-04-24 13:24 21.61334 139.74855 33080 ft 451 kts 145°
2026-04-24 13:25 21.56237 139.78861 33080 ft 451 kts 145°
2026-04-24 13:25 21.51206 139.82812 33080 ft 451 kts 145°
2026-04-24 13:26 21.46131 139.86793 33083 ft 452 kts 145°
2026-04-24 13:26 21.41054 139.90773 33084 ft 452 kts 144°
2026-04-24 13:27 21.35972 139.94754 33077 ft 452 kts 144°
2026-04-24 13:27 21.30893 139.98728 33076 ft 452 kts 144°
2026-04-24 13:28 21.25810 140.02702 33079 ft 452 kts 144°
2026-04-24 13:28 21.20728 140.06671 33080 ft 452 kts 144°
2026-04-24 13:29 21.15647 140.10637 33076 ft 452 kts 144°
2026-04-24 13:29 21.10570 140.14595 33080 ft 451 kts 144°
2026-04-24 13:30 21.05491 140.18553 33080 ft 451 kts 144°
2026-04-24 13:30 21.00420 140.22500 33078 ft 451 kts 144°
2026-04-24 13:31 20.95348 140.26444 33080 ft 451 kts 144°
2026-04-24 13:31 20.90279 140.30383 33080 ft 450 kts 144°
2026-04-24 13:32 20.85212 140.34318 33076 ft 450 kts 144°
2026-04-24 13:32 20.80144 140.38249 33073 ft 450 kts 144°
2026-04-24 13:33 20.75083 140.42172 33078 ft 449 kts 144°
2026-04-24 13:33 20.70023 140.46091 33080 ft 449 kts 144°
2026-04-24 13:34 20.64966 140.50004 33073 ft 449 kts 144°
2026-04-24 13:34 20.59909 140.53914 33078 ft 449 kts 144°
2026-04-24 13:35 20.54855 140.57819 33080 ft 448 kts 144°
2026-04-24 13:35 20.49807 140.61715 33079 ft 448 kts 144°
2026-04-24 13:36 20.44764 140.65604 33075 ft 447 kts 144°
2026-04-24 13:36 20.39727 140.69485 33080 ft 446 kts 144°
2026-04-24 13:37 20.34693 140.73361 33074 ft 446 kts 143°
2026-04-24 13:37 20.29667 140.77228 33076 ft 446 kts 143°
2026-04-24 13:38 20.24641 140.81093 33078 ft 445 kts 143°
2026-04-24 13:38 20.19614 140.84954 33079 ft 445 kts 143°
2026-04-24 13:39 20.14587 140.88813 33078 ft 446 kts 143°
2026-04-24 13:39 20.10373 140.92046 33078 ft 446 kts 143°
2026-04-24 13:40 20.05342 140.95904 33080 ft 446 kts 143°
2026-04-24 13:40 20.00304 140.99761 33080 ft 446 kts 144°
2026-04-24 13:41 19.95103 141.03371 33081 ft 447 kts 148°
2026-04-24 13:41 19.89829 141.06795 33076 ft 447 kts 148°
2026-04-24 13:42 19.84523 141.10246 33077 ft 447 kts 148°
2026-04-24 13:42 19.79225 141.13724 33077 ft 448 kts 147°
2026-04-24 13:43 19.73936 141.17213 33074 ft 448 kts 147°
2026-04-24 13:43 19.68650 141.20702 33076 ft 448 kts 147°
2026-04-24 13:44 19.63358 141.24191 33076 ft 448 kts 147°
2026-04-24 13:44 19.58069 141.27675 33076 ft 447 kts 147°
2026-04-24 13:45 19.52777 141.31157 33076 ft 447 kts 147°
2026-04-24 13:45 19.47491 141.34633 33080 ft 447 kts 147°
2026-04-24 13:46 19.42200 141.38109 33076 ft 447 kts 147°
2026-04-24 13:46 19.36911 141.41582 33076 ft 447 kts 147°
2026-04-24 13:47 19.31622 141.45051 33077 ft 447 kts 147°
2026-04-24 13:47 19.26333 141.48518 33073 ft 447 kts 148°
2026-04-24 13:48 19.21043 141.51983 33071 ft 447 kts 147°
2026-04-24 13:48 19.15751 141.55447 33074 ft 447 kts 147°
2026-04-24 13:49 19.10462 141.58906 33071 ft 447 kts 147°
2026-04-24 13:49 19.05170 141.62365 33073 ft 447 kts 148°
2026-04-24 13:50 18.99876 141.65822 33069 ft 447 kts 147°
2026-04-24 13:50 18.94583 141.69275 33068 ft 447 kts 147°
2026-04-24 13:51 18.89292 141.72726 33068 ft 447 kts 147°
2026-04-24 13:51 18.84005 141.76170 33066 ft 447 kts 147°
2026-04-24 13:52 18.78717 141.79613 33073 ft 446 kts 147°
2026-04-24 13:52 18.73432 141.83052 33066 ft 446 kts 147°
2026-04-24 13:53 18.68190 141.86459 33066 ft 446 kts 147°
2026-04-24 13:53 18.62911 141.89888 33065 ft 445 kts 147°
2026-04-24 13:54 18.57634 141.93314 33066 ft 445 kts 147°
2026-04-24 13:54 18.52358 141.96736 33064 ft 445 kts 147°
2026-04-24 13:55 18.47086 142.00153 33063 ft 445 kts 147°
2026-04-24 13:55 18.41813 142.03569 33064 ft 445 kts 147°
2026-04-24 13:56 18.36542 142.06980 33062 ft 445 kts 147°
2026-04-24 13:56 18.31267 142.10392 33061 ft 445 kts 147°
2026-04-24 13:57 18.25992 142.13801 33064 ft 445 kts 147°
2026-04-24 13:57 18.20717 142.17208 33063 ft 445 kts 147°
2026-04-24 13:58 18.15439 142.20614 33061 ft 445 kts 147°
2026-04-24 13:58 18.10155 142.24022 33060 ft 445 kts 147°
2026-04-24 13:59 18.04869 142.27429 33060 ft 446 kts 147°
2026-04-24 13:59 17.99581 142.30834 33060 ft 446 kts 147°
2026-04-24 14:00 17.94289 142.34240 33062 ft 446 kts 147°
2026-04-24 14:00 17.88997 142.37643 33061 ft 446 kts 147°
2026-04-24 14:01 17.83697 142.41049 33058 ft 447 kts 147°
2026-04-24 14:01 17.78397 142.44453 33059 ft 447 kts 147°
2026-04-24 14:02 17.73095 142.47855 33057 ft 447 kts 147°
2026-04-24 14:02 17.67791 142.51256 33056 ft 447 kts 147°
2026-04-24 14:03 17.62490 142.54653 33060 ft 447 kts 147°
2026-04-24 14:03 17.57188 142.58050 33057 ft 447 kts 147°
2026-04-24 14:04 17.51884 142.61443 33054 ft 447 kts 147°
2026-04-24 14:04 17.46584 142.64833 33055 ft 447 kts 147°
2026-04-24 14:05 17.41280 142.68223 33052 ft 447 kts 147°
2026-04-24 14:05 17.35977 142.71611 33050 ft 447 kts 147°
2026-04-24 14:06 17.30669 142.74999 33046 ft 447 kts 147°
2026-04-24 14:06 17.25359 142.78389 33047 ft 447 kts 147°
2026-04-24 14:07 17.20045 142.81774 33049 ft 448 kts 147°
2026-04-24 14:07 17.14540 142.84841 33049 ft 449 kts 152°
2026-04-24 14:08 17.08919 142.87715 33043 ft 450 kts 152°
2026-04-24 14:08 17.03298 142.90598 33049 ft 450 kts 152°
2026-04-24 14:09 16.97681 142.93515 33046 ft 451 kts 152°
2026-04-24 14:09 16.92067 142.96448 33043 ft 451 kts 152°
2026-04-24 14:10 16.86453 142.99382 33043 ft 452 kts 152°
2026-04-24 14:10 16.80828 143.02320 33044 ft 452 kts 152°
2026-04-24 14:11 16.75197 143.05257 33044 ft 453 kts 152°
2026-04-24 14:12 16.66731 143.09672 33044 ft 454 kts 152°
2026-04-24 14:12 16.61077 143.12619 33030 ft 455 kts 153°
2026-04-24 14:13 16.55413 143.15565 33045 ft 456 kts 153°
2026-04-24 14:13 16.49729 143.18521 33046 ft 457 kts 153°
2026-04-24 14:14 16.44031 143.21483 33039 ft 458 kts 153°
2026-04-24 14:14 16.35463 143.25934 33048 ft 459 kts 154°
2026-04-24 14:15 16.29731 143.28909 33042 ft 460 kts 154°
2026-04-24 14:15 16.23990 143.31886 33032 ft 461 kts 154°
2026-04-24 14:16 16.18236 143.34868 33029 ft 462 kts 154°
2026-04-24 14:17 16.09594 143.39344 33036 ft 462 kts 155°
2026-04-24 14:17 16.00963 143.43810 33028 ft 462 kts 155°
2026-04-24 14:18 15.95217 143.46780 33033 ft 461 kts 155°
2026-04-24 14:18 15.89479 143.49744 33032 ft 460 kts 155°
2026-04-24 14:19 15.83746 143.52705 33024 ft 460 kts 155°
2026-04-24 14:19 15.78022 143.55658 33025 ft 459 kts 155°
2026-04-24 14:20 15.72297 143.58610 33024 ft 459 kts 155°
2026-04-24 14:20 15.66574 143.61559 33024 ft 459 kts 155°
2026-04-24 14:21 15.60853 143.64505 33022 ft 459 kts 155°
2026-04-24 14:21 15.56095 143.66954 33022 ft 459 kts 156°
2026-04-24 14:22 15.50369 143.69899 33022 ft 460 kts 156°
2026-04-24 14:23 15.41772 143.74319 33019 ft 460 kts 156°
2026-04-24 14:23 15.36040 143.77263 33016 ft 460 kts 156°
2026-04-24 14:24 15.30312 143.80204 33005 ft 457 kts 156°
2026-04-24 14:24 15.24726 143.83073 32990 ft 435 kts 156°
2026-04-24 14:24 15.22062 143.84441 32994 ft 420 kts 156°
2026-04-24 14:25 15.19483 143.85764 32994 ft 407 kts 156°
2026-04-24 14:25 15.16983 143.87046 32994 ft 394 kts 156°
2026-04-24 14:25 15.14566 143.88284 32995 ft 382 kts 156°
2026-04-24 14:26 15.09894 143.90674 33013 ft 374 kts 156°
2026-04-24 14:26 15.05168 143.93089 33026 ft 384 kts 156°
2026-04-24 14:27 15.00378 143.95544 33012 ft 383 kts 156°
2026-04-24 14:27 14.95602 143.97987 33009 ft 382 kts 156°
2026-04-24 14:28 14.90839 144.00403 33010 ft 381 kts 157°
2026-04-24 14:28 14.86083 144.02799 33006 ft 380 kts 157°
2026-04-24 14:29 14.81341 144.05189 33011 ft 379 kts 157°
2026-04-24 14:29 14.76611 144.07575 33010 ft 378 kts 157°
2026-04-24 14:30 14.71882 144.09961 33008 ft 379 kts 157°
2026-04-24 14:30 14.67145 144.12350 33009 ft 379 kts 157°
2026-04-24 14:31 14.62394 144.14745 33010 ft 380 kts 157°
2026-04-24 14:31 14.57635 144.17142 33008 ft 381 kts 157°
2026-04-24 14:32 14.52867 144.19544 33002 ft 382 kts 157°
2026-04-24 14:32 14.48122 144.21933 33006 ft 382 kts 157°
2026-04-24 14:33 14.43351 144.24334 33007 ft 382 kts 157°
2026-04-24 14:33 14.38580 144.26734 33001 ft 381 kts 157°
2026-04-24 14:34 14.33781 144.29147 33001 ft 381 kts 157°
2026-04-24 14:34 14.29025 144.31537 32998 ft 380 kts 157°
2026-04-24 14:35 14.24281 144.33919 33001 ft 379 kts 157°
2026-04-24 14:35 14.19578 144.36281 32995 ft 378 kts 157°
2026-04-24 14:36 14.14846 144.38657 32997 ft 378 kts 157°
2026-04-24 14:36 14.10122 144.41028 32998 ft 378 kts 157°
2026-04-24 14:37 14.05396 144.43391 33000 ft 377 kts 159°
2026-04-24 14:37 14.02900 144.44093 32987 ft 369 kts 181°
2026-04-24 14:37 14.00381 144.43866 32992 ft 361 kts 199°
2026-04-24 14:37 13.98105 144.42854 33001 ft 355 kts 217°
2026-04-24 14:38 13.96258 144.41203 32996 ft 351 kts 233°
2026-04-24 14:38 13.95001 144.39077 32999 ft 348 kts 250°
2026-04-24 14:38 13.94434 144.36670 33006 ft 347 kts 267°
2026-04-24 14:38 13.94608 144.34195 33004 ft 348 kts 284°
2026-04-24 14:39 13.95514 144.31884 33001 ft 351 kts 301°
2026-04-24 14:39 13.97029 144.29903 33007 ft 355 kts 315°
2026-04-24 14:39 13.99058 144.28431 33014 ft 360 kts 330°
2026-04-24 14:40 14.03607 144.26191 33005 ft 364 kts 332°
2026-04-24 14:40 14.08178 144.23939 32991 ft 364 kts 333°
2026-04-24 14:40 14.10604 144.23189 32985 ft 368 kts 353°
2026-04-24 14:41 14.13158 144.23361 32997 ft 372 kts 12°
2026-04-24 14:41 14.15564 144.24362 32997 ft 376 kts 30°
2026-04-24 14:41 14.17559 144.26104 32992 ft 379 kts 50°
2026-04-24 14:41 14.18901 144.28435 32987 ft 381 kts 70°
2026-04-24 14:42 14.19410 144.31104 33002 ft 382 kts 91°
2026-04-24 14:42 14.19024 144.33795 33003 ft 380 kts 111°
2026-04-24 14:42 14.17797 144.36185 33004 ft 378 kts 131°
2026-04-24 14:42 14.15946 144.38072 32993 ft 375 kts 150°
2026-04-24 14:43 14.13671 144.39359 33023 ft 373 kts 158°
2026-04-24 14:43 14.08932 144.41641 33009 ft 379 kts 158°
2026-04-24 14:44 14.04115 144.43916 32981 ft 381 kts 169°
2026-04-24 14:44 14.01528 144.44161 33015 ft 372 kts 190°
2026-04-24 14:44 13.99041 144.43537 32988 ft 366 kts 207°
2026-04-24 14:44 13.96878 144.42206 32999 ft 361 kts 223°
2026-04-24 14:45 13.95204 144.40316 32993 ft 356 kts 239°
2026-04-24 14:45 13.94157 144.38029 32993 ft 353 kts 256°
2026-04-24 14:45 13.93819 144.35548 32992 ft 351 kts 272°
2026-04-24 14:45 13.94206 144.33080 32990 ft 350 kts 289°
2026-04-24 14:46 13.95278 144.30834 32997 ft 351 kts 304°
2026-04-24 14:46 13.96872 144.28930 32996 ft 353 kts 318°
2026-04-24 14:46 13.98924 144.27528 33012 ft 356 kts 330°
2026-04-24 14:47 14.02666 144.25660 32998 ft 357 kts 332°
2026-04-24 14:47 14.07896 144.23118 32992 ft 358 kts 332°
2026-04-24 14:48 14.12369 144.20874 32996 ft 358 kts 331°
2026-04-24 14:48 14.14700 144.19955 32971 ft 362 kts 348°
2026-04-24 14:48 14.17221 144.19883 33006 ft 367 kts
2026-04-24 14:48 14.19691 144.20585 32993 ft 372 kts 22°
2026-04-24 14:49 14.21889 144.22013 32998 ft 377 kts 40°
2026-04-24 14:49 14.23575 144.24089 32988 ft 381 kts 60°
2026-04-24 14:49 14.24535 144.26630 32992 ft 383 kts 79°
2026-04-24 14:49 14.24648 144.29369 33002 ft 384 kts 99°
2026-04-24 14:50 14.23904 144.31994 33007 ft 382 kts 119°
2026-04-24 14:50 14.22412 144.34241 33009 ft 380 kts 136°
2026-04-24 14:50 14.20379 144.35944 32992 ft 377 kts 154°
2026-04-24 14:51 14.15672 144.38321 33005 ft 379 kts 158°
2026-04-24 14:51 14.10877 144.40649 32998 ft 382 kts 157°
2026-04-24 14:52 14.06090 144.43044 32987 ft 382 kts 157°
2026-04-24 14:52 14.03635 144.44030 32968 ft 375 kts 174°
2026-04-24 14:52 14.01082 144.44085 33007 ft 364 kts 193°
2026-04-24 14:52 13.98697 144.43330 32992 ft 356 kts 210°
2026-04-24 14:53 13.96664 144.41927 32997 ft 350 kts 226°
2026-04-24 14:53 13.95130 144.40022 32991 ft 345 kts 242°
2026-04-24 14:53 13.94205 144.37767 32994 ft 342 kts 258°
2026-04-24 14:53 13.93958 144.35344 32999 ft 341 kts 274°
2026-04-24 14:54 13.94401 144.32954 33001 ft 342 kts 290°
2026-04-24 14:54 13.95500 144.30774 33002 ft 346 kts 304°
2026-04-24 14:54 13.97102 144.28921 32991 ft 351 kts 319°
2026-04-24 14:54 13.99187 144.27534 32815 ft 367 kts 329°
2026-04-24 14:55 14.00732 144.26723 32444 ft 385 kts 332°
2026-04-24 14:55 14.04107 144.25099 31780 ft 416 kts 333°
2026-04-24 14:55 14.06803 144.23805 31251 ft 438 kts 333°
2026-04-24 14:55 14.09597 144.22427 30725 ft 448 kts 332°
2026-04-24 14:56 14.12359 144.21042 30206 ft 446 kts 332°
2026-04-24 14:56 14.15268 144.19850 29565 ft 446 kts 347°
2026-04-24 14:56 14.18355 144.19751 28970 ft 447 kts
2026-04-24 14:56 14.21273 144.20808 28383 ft 448 kts 29°
2026-04-24 14:57 14.23627 144.22880 27812 ft 447 kts 51°
2026-04-24 14:57 14.25094 144.25674 27248 ft 446 kts 72°
2026-04-24 14:57 14.25481 144.28821 26699 ft 443 kts 94°
2026-04-24 14:57 14.24740 144.31868 26160 ft 440 kts 116°
2026-04-24 14:58 14.22981 144.34412 25630 ft 437 kts 137°
2026-04-24 14:58 14.20498 144.36095 25124 ft 433 kts 156°
2026-04-24 14:58 14.17731 144.37285 24666 ft 428 kts 155°
2026-04-24 14:58 14.15002 144.38566 24215 ft 424 kts 154°
2026-04-24 14:59 14.12395 144.39862 23782 ft 419 kts 153°
2026-04-24 14:59 14.09791 144.41180 23305 ft 415 kts 152°
2026-04-24 14:59 14.07210 144.42484 22795 ft 411 kts 153°
2026-04-24 14:59 14.04634 144.43738 22276 ft 408 kts 158°
2026-04-24 15:00 14.01863 144.44284 21763 ft 407 kts 180°
2026-04-24 15:00 13.99083 144.43816 21271 ft 406 kts 199°
2026-04-24 15:00 13.96600 144.42478 20811 ft 403 kts 217°
2026-04-24 15:00 13.94651 144.40442 20345 ft 400 kts 235°
2026-04-24 15:01 13.93414 144.37908 19882 ft 396 kts 253°
2026-04-24 15:01 13.93004 144.35132 19429 ft 392 kts 271°
2026-04-24 15:01 13.93440 144.32386 18974 ft 388 kts 289°
2026-04-24 15:01 13.94656 144.29932 18549 ft 385 kts 306°
2026-04-24 15:02 13.96454 144.27917 18076 ft 382 kts 321°
2026-04-24 15:02 13.98698 144.26485 17580 ft 378 kts 333°
2026-04-24 15:02 14.01059 144.25307 17080 ft 376 kts 335°
2026-04-24 15:02 14.03416 144.24176 16589 ft 373 kts 335°
2026-04-24 15:03 14.04998 144.23413 16263 ft 371 kts 335°
2026-04-24 15:03 14.08066 144.21903 15628 ft 366 kts 334°
2026-04-24 15:03 14.10347 144.20759 15165 ft 363 kts 334°
2026-04-24 15:03 14.12609 144.19621 14700 ft 360 kts 334°
2026-04-24 15:04 14.14933 144.18709 14219 ft 358 kts 349°
2026-04-24 15:04 14.17410 144.18628 13791 ft 356 kts
2026-04-24 15:04 14.19806 144.19241 13276 ft 355 kts 21°
2026-04-24 15:04 14.21958 144.20460 12779 ft 354 kts 36°
2026-04-24 15:05 14.23198 144.21603 12443 ft 354 kts 46°
2026-04-24 15:05 14.24585 144.23679 11959 ft 353 kts 63°
2026-04-24 15:05 14.25436 144.26894 11329 ft 353 kts 84°
2026-04-24 15:05 14.25399 144.28605 11013 ft 354 kts 96°
2026-04-24 15:06 14.24766 144.31050 10535 ft 354 kts 111°
2026-04-24 15:06 14.23504 144.33222 10135 ft 353 kts 126°
2026-04-24 15:06 14.21814 144.35003 10003 ft 343 kts 140°
2026-04-24 15:06 14.19806 144.36259 9974 ft 335 kts 150°
2026-04-24 15:07 14.17703 144.37311 9973 ft 337 kts 152°
2026-04-24 15:07 14.15580 144.38339 9965 ft 337 kts 153°
2026-04-24 15:07 14.13461 144.39371 9963 ft 337 kts 152°
2026-04-24 15:07 14.11347 144.40415 9961 ft 336 kts 152°
2026-04-24 15:08 14.09271 144.41450 9947 ft 327 kts 152°
2026-04-24 15:08 14.07242 144.42464 9694 ft 321 kts 151°
2026-04-24 15:08 14.05252 144.43460 9432 ft 315 kts 152°
2026-04-24 15:08 14.03303 144.44435 9176 ft 309 kts 151°
2026-04-24 15:09 14.01391 144.45392 8918 ft 303 kts 151°
2026-04-24 15:09 13.99508 144.46333 8672 ft 298 kts 151°
2026-04-24 15:09 13.97658 144.47258 8424 ft 293 kts 151°
2026-04-24 15:09 13.95838 144.48168 8188 ft 290 kts 152°
2026-04-24 15:10 13.94032 144.49071 7947 ft 287 kts 151°
2026-04-24 15:10 13.92243 144.49965 7712 ft 285 kts 152°
2026-04-24 15:10 13.90492 144.50841 7475 ft 283 kts 152°
2026-04-24 15:10 13.88702 144.51737 7238 ft 281 kts 151°
2026-04-24 15:11 13.86973 144.52603 7011 ft 279 kts 152°
2026-04-24 15:11 13.85230 144.53476 6769 ft 278 kts 152°
2026-04-24 15:11 13.83497 144.54341 6537 ft 276 kts 152°
2026-04-24 15:11 13.81776 144.55200 6309 ft 275 kts 152°
2026-04-24 15:12 13.80053 144.56059 6066 ft 276 kts 153°
2026-04-24 15:12 13.76602 144.57783 5577 ft 275 kts 152°
2026-04-24 15:12 13.74891 144.58638 5336 ft 272 kts 152°
2026-04-24 15:13 13.73166 144.59498 5106 ft 272 kts 152°
2026-04-24 15:13 13.71492 144.60333 5016 ft 272 kts 152°
2026-04-24 15:13 13.69773 144.61193 4984 ft 276 kts 151°
2026-04-24 15:13 13.68029 144.62064 4972 ft 274 kts 152°
2026-04-24 15:14 13.66353 144.62899 4963 ft 269 kts 151°
2026-04-24 15:14 13.64672 144.63734 4965 ft 261 kts 151°
2026-04-24 15:14 13.63058 144.64537 4965 ft 256 kts 151°
2026-04-24 15:14 13.61434 144.65262 4966 ft 257 kts 164°
2026-04-24 15:15 13.59667 144.65278 4973 ft 260 kts 191°
2026-04-24 15:15 13.57984 144.64539 4713 ft 262 kts 214°
2026-04-24 15:15 13.56700 144.63218 4474 ft 261 kts 227°
2026-04-24 15:15 13.55471 144.61897 4233 ft 258 kts 221°
2026-04-24 15:16 13.54089 144.60738 3986 ft 255 kts 213°
2026-04-24 15:16 13.52598 144.59784 3778 ft 250 kts 206°
2026-04-24 15:16 13.51008 144.59030 3589 ft 247 kts 199°
2026-04-24 15:16 13.49388 144.58482 3393 ft 243 kts 191°
2026-04-24 15:17 13.47750 144.58126 3190 ft 239 kts 186°
2026-04-24 15:17 13.46144 144.57961 3069 ft 229 kts 178°
2026-04-24 15:17 13.44533 144.57980 3029 ft 232 kts 172°
2026-04-24 15:17 13.42955 144.58150 3006 ft 228 kts 167°
2026-04-24 15:18 13.41482 144.58649 2959 ft 213 kts 141°
2026-04-24 15:18 13.40595 144.59743 2977 ft 193 kts 110°
2026-04-24 15:18 13.40341 144.61071 2980 ft 188 kts 88°
2026-04-24 15:18 13.40632 144.62329 2981 ft 177 kts 67°
2026-04-24 15:19 13.41136 144.63461 2988 ft 175 kts 66°
2026-04-24 15:19 13.41635 144.64600 2976 ft 175 kts 66°
2026-04-24 15:19 13.42130 144.65705 2836 ft 165 kts 66°
2026-04-24 15:19 13.42599 144.66741 2647 ft 155 kts 65°
2026-04-24 15:20 13.43049 144.67736 2458 ft 154 kts 65°
2026-04-24 15:20 13.43504 144.68739 2270 ft 155 kts 65°
2026-04-24 15:20 13.43954 144.69728 2064 ft 151 kts 65°
2026-04-24 15:20 13.44393 144.70696 1877 ft 151 kts 66°
2026-04-24 15:21 13.44838 144.71680 1666 ft 154 kts 65°
2026-04-24 15:21 13.45266 144.72656 1419 ft 142 kts 66°
2026-04-24 15:21 13.45664 144.73557 1244 ft 141 kts 65°
2026-04-24 15:21 13.46119 144.74495 1095 ft 148 kts 65°
2026-04-24 15:22 13.46559 144.75451 934 ft 147 kts 66°
2026-04-24 15:22 13.46978 144.76400 725 ft 145 kts 65°
2026-04-24 15:22 13.47410 144.77329 534 ft 147 kts 65°
2026-04-24 15:23 13.48237 144.79153 275 ft 116 kts 64°
2026-04-24 15:23 13.48668 144.80095 288 ft 30 kts 65°
2026-04-24 15:23 13.48746 144.80221 292 ft 20 kts 50°
2026-04-24 15:24 13.48997 144.80422 294 ft 13 kts 41°
2026-04-24 15:25 13.49069 144.80546 297 ft 9 kts 61°
2026-04-24 15:25 13.49123 144.80622 299 ft 2 kts 342°
2026-04-24 15:26 13.49189 144.80583 295 ft 0 kts 330°
2026-04-24 15:27 13.49197 144.80579 296 ft 0 kts 330°